Alva, OK

3:55 PM CDT on July 26, 2016 (GMT -0500)
Alva Regional

Weather History for KAVK - November, 2012

Change the Weather History Date:

Saturday, November 17, 2012

  Actual Average Record
Temperature  
Mean Temperature 50 °F -  
Max Temperature 64 °F 60 °F 77 °F (1966)
Min Temperature 35 °F 36 °F 8 °F (1959)
Degree Days  
Heating Degree Days 16    
Moisture  
Dew Point 33 °F    
Average Humidity 57    
Maximum Humidity 87    
Minimum Humidity 32    
Precipitation  
Precipitation 0.00 in - - ()
Sea Level Pressure  
Sea Level Pressure 30.24 in    
Wind  
Wind Speed 14 mph (South)    
Max Wind Speed 25 mph    
Max Gust Speed 32 mph    
Visibility 10 miles    
Events      
Averages and records for this station are not official NWS values.
T = Trace of Precipitation, MM = Missing Value Source: NWS Daily Summary

Daily Weather History Graph

Daily Weather History Graph

Search for Another Location

Airport or City:

Trip Planner

Search our weather history database for the weather conditions in past years. The results will help you decide how hot, cold, wet, or windy it might be!

Date:

Astronomy

Nov. 17, 2012 Rise Set
Actual Time 7:15 AM CST 5:23 PM CST
Civil Twilight 6:47 AM CST 5:51 PM CST
Nautical Twilight 6:16 AM CST 6:22 PM CST
Astronomical Twilight 5:45 AM CST 6:53 PM CST
Moon 11:01 AM CST (11/17) 9:35 PM CST (11/17)
Length of Visible Light 11h 03m
Length of Day
10h 08m
Waxing Crescent, 20% of the Moon is Illuminated
Nov 17
Waxing Crescent
Nov 20
First Quarter
Nov 28
Full
Dec 6
Last Quarter
Dec 13
New

Hourly Weather History & Observations

Time (CST) Temp. Windchill Dew Point Humidity Pressure Visibility Wind Dir Wind Speed Gust Speed Precip Events Conditions
12:15 AM 37.4 °F 29.8 °F 32.0 °F 81% 30.30 in 10.0 mi South 11.5 mph - N/A   Scattered Clouds
12:35 AM 39.2 °F 31.6 °F 32.0 °F 75% 30.30 in 10.0 mi SSE 12.7 mph - N/A   Scattered Clouds
12:55 AM 37.4 °F 29.8 °F 32.0 °F 81% 30.29 in 10.0 mi South 11.5 mph - N/A   Scattered Clouds
1:15 AM 37.4 °F 30.8 °F 32.0 °F 81% 30.30 in 10.0 mi South 9.2 mph - N/A   Scattered Clouds
1:35 AM 37.4 °F 30.3 °F 32.0 °F 81% 30.29 in 10.0 mi South 10.4 mph - N/A   Partly Cloudy
1:55 AM 35.6 °F 27.5 °F 32.0 °F 87% 30.29 in 10.0 mi South 11.5 mph - N/A   Mostly Cloudy
2:15 AM 37.4 °F 29.3 °F 32.0 °F 81% 30.29 in 10.0 mi South 12.7 mph - N/A   Mostly Cloudy
2:35 AM 37.4 °F 29.8 °F 32.0 °F 81% 30.29 in 10.0 mi South 11.5 mph - N/A   Partly Cloudy
2:55 AM 37.4 °F 29.3 °F 32.0 °F 81% 30.29 in 10.0 mi South 12.7 mph - N/A   Scattered Clouds
3:15 AM 37.4 °F 30.3 °F 32.0 °F 81% 30.29 in 10.0 mi South 10.4 mph - N/A   Mostly Cloudy
3:35 AM 35.6 °F 28.0 °F 32.0 °F 87% 30.29 in 10.0 mi South 10.4 mph - N/A   Mostly Cloudy
3:55 AM 35.6 °F 27.5 °F 32.0 °F 87% 30.29 in 10.0 mi South 11.5 mph - N/A   Mostly Cloudy
4:15 AM 35.6 °F 28.0 °F 32.0 °F 87% 30.29 in 10.0 mi South 10.4 mph - N/A   Overcast
4:35 AM 35.6 °F 27.5 °F 30.2 °F 81% 30.29 in 10.0 mi South 11.5 mph - N/A   Overcast
4:55 AM 35.6 °F 28.0 °F 30.2 °F 81% 30.28 in 10.0 mi South 10.4 mph - N/A   Mostly Cloudy
5:15 AM 35.6 °F 28.6 °F 32.0 °F 87% 30.28 in 10.0 mi South 9.2 mph - N/A   Mostly Cloudy
5:35 AM 37.4 °F 31.4 °F 32.0 °F 81% 30.28 in 10.0 mi South 8.1 mph - N/A   Mostly Cloudy
5:55 AM 37.4 °F 29.8 °F 32.0 °F 81% 30.29 in 10.0 mi South 11.5 mph - N/A   Scattered Clouds
6:15 AM 35.6 °F 29.2 °F 30.2 °F 81% 30.29 in 10.0 mi South 8.1 mph - N/A   Partly Cloudy
6:35 AM 35.6 °F 28.6 °F 30.2 °F 81% 30.28 in 10.0 mi SSE 9.2 mph - N/A   Clear
6:55 AM 35.6 °F 28.0 °F 30.2 °F 81% 30.29 in 10.0 mi SSE 10.4 mph - N/A   Clear
7:15 AM 35.6 °F 29.2 °F 30.2 °F 81% 30.29 in 8.0 mi South 8.1 mph - N/A   Clear
7:35 AM 35.6 °F 29.9 °F 32.0 °F 87% 30.29 in 9.0 mi South 6.9 mph - N/A   Clear
7:55 AM 37.4 °F 32.1 °F 32.0 °F 81% 30.30 in 8.0 mi South 6.9 mph - N/A   Clear
8:15 AM 39.2 °F 33.6 °F 32.0 °F 75% 30.29 in 10.0 mi South 8.1 mph - N/A   Clear
8:35 AM 46.4 °F 41.9 °F 32.0 °F 57% 30.29 in 9.0 mi South 9.2 mph - N/A   Clear
8:55 AM 50.0 °F - 32.0 °F 50% 30.29 in 10.0 mi SSW 18.4 mph - N/A   Clear
9:15 AM 53.6 °F - 32.0 °F 44% 30.30 in 10.0 mi SSW 16.1 mph - N/A   Clear
9:35 AM 55.4 °F - 32.0 °F 41% 30.30 in 10.0 mi SSW 23.0 mph 29.9 mph N/A   Clear
9:55 AM 55.4 °F - 30.2 °F 38% 30.30 in 10.0 mi SSW 23.0 mph 31.1 mph N/A   Clear
10:15 AM 57.2 °F - 30.2 °F 36% 30.29 in 10.0 mi SSW 25.3 mph 31.1 mph N/A   Clear
10:55 AM 59.0 °F - 32.0 °F 36% 30.28 in 10.0 mi SSW 23.0 mph 29.9 mph N/A   Clear
11:15 AM 59.0 °F - 32.0 °F 36% 30.27 in 10.0 mi South 23.0 mph 29.9 mph N/A   Clear
11:35 AM 60.8 °F - 32.0 °F 34% 30.26 in 10.0 mi South 20.7 mph 27.6 mph N/A   Clear
11:55 AM 62.6 °F - 32.0 °F 32% 30.25 in 9.0 mi South 19.6 mph 26.5 mph N/A   Clear
12:15 PM 62.6 °F - 32.0 °F 32% 30.23 in 10.0 mi South 20.7 mph 28.8 mph N/A   Clear
12:35 PM 64.4 °F - 33.8 °F 32% 30.22 in 10.0 mi SSW 23.0 mph - N/A   Clear
12:55 PM 64.4 °F - 33.8 °F 32% 30.21 in 10.0 mi SSW 21.9 mph 28.8 mph N/A   Clear
1:15 PM 64.4 °F - 33.8 °F 32% 30.21 in 10.0 mi South 19.6 mph 29.9 mph N/A   Clear
1:35 PM 64.4 °F - 35.6 °F 34% 30.20 in 10.0 mi South 24.2 mph 32.2 mph N/A   Clear
1:55 PM 64.4 °F - 35.6 °F 34% 30.19 in 10.0 mi South 20.7 mph 29.9 mph N/A   Clear
2:15 PM 64.4 °F - 35.6 °F 34% 30.19 in 10.0 mi South 25.3 mph 31.1 mph N/A   Clear
2:35 PM 64.4 °F - 35.6 °F 34% 30.18 in 10.0 mi South 24.2 mph 27.6 mph N/A   Clear
2:55 PM 64.4 °F - 35.6 °F 34% 30.18 in 10.0 mi South 23.0 mph 27.6 mph N/A   Clear
3:15 PM 64.4 °F - 35.6 °F 34% 30.18 in 10.0 mi South 23.0 mph 28.8 mph N/A   Clear
3:35 PM 64.4 °F - 35.6 °F 34% 30.18 in 10.0 mi South 20.7 mph 28.8 mph N/A   Clear
3:55 PM 64.4 °F - 35.6 °F 34% 30.18 in 10.0 mi South 18.4 mph 24.2 mph N/A   Clear
4:15 PM 62.6 °F - 37.4 °F 39% 30.18 in 10.0 mi South 18.4 mph 27.6 mph N/A   Clear
4:35 PM 60.8 °F - 37.4 °F 42% 30.17 in 10.0 mi South 17.3 mph - N/A   Clear
4:55 PM 59.0 °F - 35.6 °F 42% 30.17 in 10.0 mi South 13.8 mph - N/A   Clear
5:15 PM 55.4 °F - 35.6 °F 47% 30.17 in 10.0 mi South 10.4 mph - N/A   Clear
5:35 PM 53.6 °F - 35.6 °F 51% 30.17 in 10.0 mi South 13.8 mph - N/A   Partly Cloudy
6:15 PM 53.6 °F - 35.6 °F 51% 30.18 in 10.0 mi South 12.7 mph - N/A   Scattered Clouds
6:35 PM 51.8 °F - 35.6 °F 54% 30.19 in 10.0 mi South 10.4 mph - N/A   Partly Cloudy
6:55 PM 48.2 °F - 33.8 °F 58% 30.18 in 10.0 mi SSE 10.4 mph - N/A   Partly Cloudy
7:15 PM 48.2 °F - 33.8 °F 58% 30.18 in 10.0 mi SSE 11.5 mph - N/A   Scattered Clouds
7:35 PM 48.2 °F - 33.8 °F 58% 30.19 in 10.0 mi South 11.5 mph - N/A   Mostly Cloudy
7:55 PM 48.2 °F - 33.8 °F 58% 30.19 in 10.0 mi South 11.5 mph - N/A   Partly Cloudy
8:15 PM 48.2 °F - 32.0 °F 54% 30.19 in 10.0 mi South 15.0 mph - N/A   Partly Cloudy
8:35 PM 50.0 °F - 32.0 °F 50% 30.19 in 10.0 mi South 15.0 mph - N/A   Partly Cloudy
8:55 PM 48.2 °F - 32.0 °F 54% 30.20 in 10.0 mi South 13.8 mph - N/A   Scattered Clouds
9:15 PM 48.2 °F - 32.0 °F 54% 30.19 in 10.0 mi South 13.8 mph - N/A   Scattered Clouds
9:35 PM 48.2 °F - 32.0 °F 54% 30.19 in 10.0 mi South 15.0 mph - N/A   Scattered Clouds
9:55 PM 48.2 °F - 32.0 °F 54% 30.19 in 10.0 mi South 13.8 mph - N/A   Scattered Clouds
10:15 PM 46.4 °F 40.4 °F 30.2 °F 53% 30.19 in 10.0 mi South 13.8 mph - N/A   Scattered Clouds
10:35 PM 48.2 °F - 30.2 °F 50% 30.19 in 10.0 mi South 15.0 mph - N/A   Scattered Clouds
10:55 PM 48.2 °F - 28.4 °F 46% 30.19 in 10.0 mi South 13.8 mph - N/A   Partly Cloudy
11:15 PM 48.2 °F - 28.4 °F 46% 30.19 in 10.0 mi South 13.8 mph - N/A   Partly Cloudy
11:35 PM 48.2 °F - 28.4 °F 46% 30.19 in 10.0 mi South 13.8 mph - N/A   Partly Cloudy
11:55 PM 48.2 °F - 28.4 °F 46% 30.19 in 10.0 mi South 13.8 mph - N/A   Partly Cloudy